ATLAS 5 CENTAUR DEB, 44674

Orbit data source: Space-Track

ATLAS 5 CENTAUR DEB, 44674 is space debris in HEO originally from a launch on Wed, 17 Oct 2018 UTC launched from the Air Force Eastern Test Range (AFETR). Debris objects in space refer to the collection of defunct objects orbiting the Earth. Examples of debris include non-operational satellites, rocket bodies, and fragments generated from explosions, collisions, or faulty payload assembly.

Loading next visibility...
Identifier
44674, 2018-079AL
Orbit
HEO
Country
Flag of USUS
Related business
Flag of USUnited Launch Alliance/Lockheed Martin (US)
Manufacturer
ULA Decatur
Mission
Spacecraft
Bus & Motor
Unknown
Mass
Unknown
Launch date (UTC)
2018-10-17 (8 years ago)
Launch vehicle
Unknown
Launch site
Air Force Eastern Test Range (AFETR)
Object type
Payload
Rocket body
Debris
Shape & HBR
Unknown shape, 1.1 m
Radar Cross Section
Medium (>0.1 m² and <1 m²)

Expand to show TLE details & history
Last TLE update: 4 days ago

TLE from 4 days ago
0 ATLAS 5 CENTAUR DEB
1 44674U 18079AL  26232.83467603 -.00000123  00000-0  00000-0 0  9999
2 44674  13.1463  29.4775 4361650 349.2144   3.7388  1.93754801 50799
Epoch: 2026-08-20T20:01Z
TLE epoch observation values (Epoch: 2026-08-20T20:01:56.008Z)
Latitude
0.00004°
Longitude
119.84988°
Altitude
9,037.534 km
Speed
6.087 km/s
True Right ascension
01h 58m 00s
True Declination
0° 00' 00"
Sunlit
Object was in daylight at epoch
Visualization orbit readout
Latitude
Unknown
Longitude
Unknown
Altitude
Unknown
Speed
Unknown
Apparent Right ascension
Unknown
Apparent Declination
Unknown
Sunlit
N/A
Visualization observer readout
Local Sidereal Time
13:29:21
Azimuth
Unknown
Elevation
Unknown
Doppler factor
Unknown
Orbital elements
Apogee altitude
32,658.366 km
Perigee altitude
8,947.502 km
Semi-major axis
27,181.071 km
Eccentricity
0.43617
Inclination
13.1463°
RAAN
29.4775°
Arg. of periapsis
349.2144°
True anomaly
10.54666°
Mean anomaly
3.7388°
Eccentric anomaly
6.61963°
Mean motion
0.48433 °/min
Orbital period
743.29 mins
BSTAR
0
Loading maneuver chart data...
Computing Atmospheric mass density...

Documentation

Showing up to 5 results
|